Theta_e
343 341 342 343 344 345 348 346 343 336 335 341 337 337 334 333 328 324 325 326 328 333 333 330 334 339 340 342 342 344 341 344 349 344 337 334 333 339 341 342 340 341 342 342 343 345 346 344 344 346 347 348 349 349 349 349 349 349 348 348 348 347 347 347 347 347 347 347 347 346 346 346 346 346
345 344 342 343 345 347 346 346 345 345 335 337 344 342 338 334 330 329 324 324 330 331 335 331 333 337 341 343 343 344 340 350 349 343 339 340 337 336 338 340 340 340 340 340 340 342 343 344 343 343 343 344 345 347 348 349 348 348 348 347 347 348 347 346 346 346 346 346 346 346 346 346 346 346
346 344 342 342 343 346 345 345 345 345 345 337 342 340 341 339 334 333 329 325 330 334 333 332 337 339 341 344 344 345 344 349 350 343 340 339 344 343 339 339 339 338 337 337 337 337 338 338 340 340 340 341 342 344 345 346 346 346 346 346 346 346 346 345 344 345 345 345 346 345 345 345 345 345
348 346 343 343 343 344 344 344 344 343 345 343 339 341 339 339 338 336 332 328 328 337 335 340 339 342 341 342 341 340 344 351 352 342 341 341 346 347 343 343 339 337 336 336 336 335 334 335 337 338 339 340 342 344 343 342 342 342 342 343 343 343 344 342 342 343 343 343 344 343 344 343 344 343
349 347 345 344 344 345 343 342 343 344 343 343 340 340 340 338 339 336 334 331 332 336 340 342 338 342 340 340 340 339 339 345 346 345 342 345 344 343 343 342 342 338 336 335 335 335 335 335 336 337 339 340 342 343 343 342 339 339 339 339 337 338 340 338 337 339 339 340 340 340 341 341 341 341
349 348 346 345 345 346 345 343 342 343 343 343 340 338 340 337 339 339 335 332 332 332 335 337 339 340 341 337 341 340 338 341 343 341 341 346 342 343 343 341 342 341 338 335 334 335 334 334 335 335 337 338 339 339 340 339 336 336 336 334 333 334 333 333 334 336 336 336 337 338 338 339 339 339
348 348 347 346 345 347 346 344 343 343 342 342 340 339 339 338 338 339 337 334 332 332 333 337 336 336 340 337 338 339 341 342 342 340 340 342 346 345 343 343 344 342 338 336 334 334 334 334 334 334 336 336 335 335 334 333 333 332 331 330 332 332 330 330 332 333 333 334 334 335 335 335 336 336
348 348 348 347 345 345 345 345 344 343 342 341 340 339 339 338 338 339 339 337 334 333 332 335 338 336 335 337 341 340 342 342 341 340 340 342 342 343 344 342 341 341 339 337 335 334 333 332 332 331 331 331 330 329 329 329 329 329 328 327 327 327 326 326 327 329 329 329 330 331 331 331 331 330
351 349 348 349 347 344 343 344 344 343 341 342 341 339 339 338 338 340 340 338 337 335 333 333 337 340 337 336 338 339 336 339 341 341 340 341 341 341 342 343 343 341 338 337 335 333 332 332 331 330 330 330 329 328 328 327 327 327 326 325 325 325 325 325 323 324 325 325 326 325 326 327 328 328
354 351 349 350 349 345 343 343 344 344 342 342 341 341 339 339 339 338 340 339 338 336 335 334 334 337 339 336 336 338 338 337 336 337 339 340 342 341 340 340 342 344 344 340 337 333 332 332 330 330 330 330 329 328 327 327 326 325 323 320 320 323 323 324 325 324 323 323 324 326 325 326 326 327
357 354 352 351 350 348 345 343 343 344 343 343 341 342 341 340 339 338 338 340 338 337 335 336 337 336 339 338 335 337 338 338 337 334 334 335 339 340 339 339 341 341 344 339 338 337 335 333 332 326 326 328 329 329 328 327 325 324 321 318 318 319 319 319 321 322 321 322 322 321 319 320 323 325
358 356 355 353 352 351 348 346 344 345 344 344 342 342 342 341 339 338 338 339 339 336 335 334 335 336 336 336 337 340 337 333 333 337 335 332 334 337 338 338 339 342 342 339 339 338 335 333 332 327 327 329 329 329 329 330 329 326 323 321 323 323 320 320 320 320 319 318 317 317 317 316 319 321
358 358 356 355 354 354 349 341 341 341 341 345 342 342 342 342 340 339 338 337 339 338 336 334 335 334 334 336 336 335 336 333 332 334 337 335 335 337 337 339 341 342 341 341 339 338 338 336 336 336 334 334 333 331 331 332 334 329 323 322 325 325 323 320 320 320 320 319 318 316 316 317 318 321
358 358 357 357 347 341 340 338 335 334 334 335 342 343 341 341 341 339 338 337 337 338 337 336 335 333 333 334 335 335 337 338 336 335 336 334 335 336 337 338 341 344 343 341 339 339 341 338 336 337 336 337 341 334 333 332 333 332 327 325 324 325 325 322 321 320 320 318 318 317 315 316 318 318
356 357 357 357 352 343 339 342 334 333 331 332 333 335 336 337 342 340 338 337 337 336 337 338 337 336 335 335 335 336 337 337 337 336 336 335 334 334 333 332 335 348 344 340 338 337 341 339 336 337 338 338 341 339 336 334 333 330 328 326 325 325 325 324 323 322 319 318 317 316 315 316 317 316
356 356 357 357 357 355 352 351 346 336 332 330 330 331 332 332 333 336 340 339 338 337 336 336 337 337 336 336 337 336 336 337 338 337 337 336 334 333 333 332 332 337 346 340 337 337 338 340 336 334 337 338 338 339 335 333 332 330 328 327 326 325 325 325 325 325 323 321 320 320 320 319 319 318
357 356 356 357 358 358 345 348 351 348 343 330 328 329 330 331 330 331 333 336 341 341 338 337 336 337 338 336 337 338 337 338 336 337 336 337 336 336 334 334 334 338 346 340 336 335 336 340 337 334 336 337 337 338 333 332 332 330 329 327 327 326 325 324 324 324 323 321 320 319 318 317 317 316
357 357 356 355 356 357 356 352 352 352 349 346 340 336 338 340 338 329 329 330 332 338 341 339 337 339 340 338 338 341 340 337 336 336 336 337 337 337 336 338 337 340 345 339 335 331 332 337 336 334 335 337 337 337 332 328 329 329 327 326 325 325 324 323 322 322 321 320 318 317 315 313 313 313
358 357 357 355 355 355 356 355 351 352 351 349 346 342 340 341 342 341 339 338 339 340 342 342 341 340 341 341 340 340 341 340 339 339 339 339 339 340 338 336 339 341 343 339 336 330 331 336 334 333 332 333 333 333 330 327 327 327 324 325 325 323 322 321 321 319 318 318 316 315 313 312 311 310
358 358 357 355 354 354 354 346 332 339 352 351 348 345 343 342 343 343 337 335 336 341 343 343 343 343 343 337 342 342 342 341 340 342 342 341 340 338 336 335 338 338 342 341 336 332 331 335 334 331 332 332 330 332 331 326 325 324 324 325 323 321 319 318 318 318 317 316 315 314 312 309 308 307
357 358 358 356 355 354 354 342 330 329 333 351 349 347 345 344 343 343 345 333 328 329 330 330 332 333 332 330 329 328 332 341 339 341 338 337 339 336 333 333 334 335 339 341 339 334 330 332 332 330 330 330 329 330 327 327 325 323 321 321 321 319 318 316 315 315 315 315 315 314 314 311 309 309
357 358 350 358 357 355 354 336 327 326 331 348 350 349 347 345 343 344 346 346 341 327 326 327 329 330 330 331 330 329 329 330 335 341 336 338 339 336 335 332 333 334 336 339 342 333 332 333 331 329 328 329 327 326 326 329 325 323 317 317 319 318 316 315 313 314 314 314 314 313 312 310 309 310
357 357 355 347 347 352 349 333 327 324 328 346 350 350 348 346 345 345 346 345 345 343 338 337 336 337 335 338 339 339 329 332 340 342 341 340 339 336 335 334 333 330 332 337 342 334 332 331 331 329 324 322 324 326 327 329 324 323 323 321 319 317 317 316 313 312 311 312 312 313 311 309 310 311
356 357 357 351 331 327 329 328 324 322 320 342 349 351 349 348 346 349 348 347 346 345 343 341 340 339 340 340 341 342 339 338 344 342 342 341 341 337 336 335 333 331 331 335 340 335 333 333 330 331 327 321 318 323 328 325 324 324 323 322 320 320 320 318 315 312 310 310 310 311 310 309 309 310
356 356 356 357 340 326 323 321 321 318 316 322 346 350 350 350 349 344 349 347 337 345 345 343 342 341 341 340 339 339 340 339 341 342 340 341 342 339 336 335 334 333 333 335 338 336 329 331 329 329 325 322 320 318 320 324 325 324 325 323 321 321 320 319 318 317 313 311 309 308 307 308 308 309
356 357 357 357 345 330 324 321 319 318 318 316 333 346 333 332 332 345 349 350 348 345 345 344 342 341 340 339 338 338 338 339 340 342 341 341 341 341 340 338 334 332 331 335 333 335 329 327 328 326 322 320 319 318 317 317 320 321 323 320 319 317 319 318 318 316 314 315 315 312 311 310 309 309
357 359 358 356 343 330 323 319 318 318 318 317 326 322 323 325 327 332 346 348 348 346 344 343 342 340 340 338 337 337 337 338 339 341 342 342 341 341 340 340 339 336 333 332 338 335 330 325 329 324 319 319 317 317 316 314 314 320 317 317 316 314 316 312 312 312 313 313 317 313 310 308 309 310
359 359 359 340 311 309 309 311 314 317 318 329 321 316 319 322 325 339 344 345 346 345 344 342 342 341 341 340 339 338 338 338 338 341 342 342 341 340 339 339 341 334 330 331 334 334 330 325 325 324 322 319 317 315 313 316 318 312 310 315 316 314 312 314 312 316 318 315 313 314 315 314 315 313
340 326 313 311 312 313 312 312 313 314 315 314 314 316 317 320 334 339 342 345 346 345 344 343 343 343 342 341 341 341 339 339 339 339 340 341 340 339 338 336 337 334 331 331 331 331 329 325 323 323 322 320 318 317 316 313 313 312 312 310 308 310 313 314 312 308 311 310 309 311 312 313 313 317
315 314 314 315 318 320 326 337 339 339 337 322 319 316 316 326 332 338 342 343 341 343 345 344 343 344 344 342 342 341 340 338 336 337 337 337 336 335 333 332 330 329 329 330 329 328 327 325 324 323 321 320 319 317 316 313 312 311 315 311 309 315 316 312 309 308 313 310 311 315 316 316 315 316
331 330 328 327 318 318 317 318 318 320 325 330 333 334 331 331 333 337 340 343 345 344 345 344 345 346 345 344 341 339 338 336 337 337 335 335 334 333 332 331 327 324 326 328 328 327 326 326 324 322 319 318 319 318 316 314 311 310 311 312 313 305 307 310 311 312 310 312 314 315 316 315 314 323
322 323 317 318 326 328 330 332 334 337 339 339 338 340 340 337 334 332 329 331 342 346 348 348 348 346 344 340 338 338 337 337 336 336 334 334 333 332 331 328 324 323 323 325 325 329 332 326 324 322 321 319 316 315 315 314 312 310 309 312 314 311 312 310 308 307 309 310 313 311 311 312 312 314
319 319 320 321 322 323 324 325 326 328 330 332 336 339 342 342 340 337 336 337 338 341 343 344 345 344 343 340 338 336 336 335 335 336 334 334 332 331 330 327 324 321 320 321 322 324 324 324 326 322 320 319 318 317 314 311 312 311 310 309 311 310 309 309 309 308 310 312 311 310 309 311 314 315
311 313 316 318 319 321 321 322 323 323 324 326 327 330 327 336 339 338 338 338 338 340 341 343 343 343 340 338 337 335 334 334 334 334 330 332 331 329 327 326 324 323 322 321 321 322 322 322 322 321 321 320 320 318 316 313 311 311 310 309 309 308 309 310 310 311 312 312 309 307 307 307 310 312
313 314 315 317 318 319 320 320 321 322 322 323 324 325 326 329 331 332 336 337 336 336 339 339 341 342 340 337 335 333 333 332 333 333 331 332 330 328 327 326 324 322 321 319 320 321 321 320 318 317 316 316 315 316 321 315 311 310 310 310 310 309 310 313 312 313 313 311 309 308 308 309 309 311
313 313 314 316 317 319 319 320 321 322 322 322 322 323 323 324 326 327 330 334 337 337 338 338 338 340 339 336 334 332 332 330 332 332 330 329 328 327 327 325 323 322 321 320 320 321 320 318 316 314 312 311 309 308 310 321 318 313 310 309 310 311 312 313 315 314 311 309 310 307 305 306 308 311
316 317 317 318 320 322 322 323 323 323 324 323 323 323 323 323 324 326 327 326 333 335 337 338 338 338 338 334 331 329 329 329 330 329 328 328 327 326 325 323 323 322 322 321 321 320 319 316 315 314 311 310 308 307 309 314 317 317 314 311 311 312 312 313 313 310 310 309 308 308 308 308 309 311
318 319 320 321 324 326 326 326 326 326 326 325 325 325 325 325 326 327 328 329 329 330 333 336 335 336 337 334 331 331 331 330 330 329 327 327 325 323 323 322 322 321 321 321 321 320 319 317 315 315 313 310 309 308 308 309 315 314 314 314 311 312 315 312 309 307 307 309 310 310 311 308 310 312
315 321 325 327 328 329 328 328 328 328 328 327 326 326 326 326 326 326 326 326 327 328 331 333 335 334 333 334 332 331 330 328 328 327 326 325 324 323 322 322 321 321 320 319 319 319 318 317 316 315 314 312 310 310 310 307 311 314 314 310 313 312 313 309 308 308 306 307 308 310 311 312 311 314
325 327 328 328 328 329 329 329 329 329 328 328 327 327 327 326 326 326 326 325 325 326 327 328 329 329 334 334 330 329 330 329 328 327 325 324 323 322 322 321 320 320 319 317 317 317 317 317 316 316 315 314 314 313 311 311 310 310 313 311 309 314 315 313 311 310 308 308 309 307 307 306 307 306
326 327 329 329 329 329 328 329 329 329 328 328 328 323 328 327 327 326 326 326 325 325 326 327 329 330 332 333 331 329 326 324 326 325 324 322 321 320 320 318 319 319 317 316 317 316 316 317 320 319 320 315 315 310 307 304 304 304 305 309 307 308 311 313 313 310 309 309 308 307 307 306 304 304
324 327 329 329 328 328 329 328 327 327 326 326 326 326 326 326 325 320 325 325 325 324 324 324 328 328 329 331 328 323 323 324 323 322 320 320 319 318 318 319 318 318 318 316 316 316 318 318 323 321 316 312 309 306 304 304 303 304 305 306 309 307 308 309 310 311 311 308 308 306 305 304 304 303
326 328 329 329 328 328 328 327 326 326 326 325 325 325 324 324 324 324 324 324 324 324 324 324 325 323 323 323 323 322 321 320 321 320 320 320 320 319 318 318 319 319 319 318 318 317 317 318 318 315 314 312 310 308 305 306 305 304 304 306 307 310 312 311 308 308 310 310 310 310 309 306 302 300
327 328 329 329 328 328 327 326 325 325 325 325 324 324 323 322 322 323 323 323 323 324 325 325 324 324 323 324 324 323 322 321 321 321 320 319 320 320 319 318 318 318 318 318 317 316 317 317 316 314 312 310 310 307 306 306 305 306 304 306 308 308 309 311 312 310 310 310 310 309 311 311 310 310
324 326 327 327 328 328 327 326 324 324 324 324 324 323 322 323 322 323 323 323 323 324 324 324 324 324 324 323 323 321 321 317 319 320 320 319 319 318 319 318 317 318 317 316 314 313 313 313 313 312 311 310 309 308 308 308 306 306 306 306 306 307 307 307 305 305 306 309 310 310 309 310 311 310
Wind_Speed
6 5 5 5 5 5 3 3 4 5 4 5 6 6 7 6 4 3 4 4 4 4 3 3 3 8 7 8 6 8 7 9 10 7 8 8 7 12 16 15 14 14 14 13 14 14 14 14 14 13 13 12 11 11 10 10 9 9 8 9 10 10 9 8 7 8 8 8 8 8 9 9 10 10
6 5 6 5 5 5 4 5 3 4 5 5 6 6 6 6 7 5 5 5 4 4 3 4 4 4 7 6 6 6 7 9 11 8 8 8 8 13 16 16 16 15 14 14 14 14 14 14 14 14 13 13 12 11 11 10 9 9 9 10 11 11 10 9 8 8 8 8 9 9 10 10 10 10
7 6 7 6 6 5 5 4 4 3 3 5 4 6 6 5 6 6 4 2 4 4 5 5 3 6 5 6 6 5 6 7 10 8 8 8 11 14 12 16 17 16 15 14 14 14 15 14 14 14 13 13 12 11 10 10 9 9 10 10 10 10 10 9 8 8 9 9 9 9 10 10 10 10
8 8 7 7 7 6 5 5 5 4 4 4 5 4 5 5 5 6 5 6 7 3 3 4 4 7 8 7 7 6 5 7 12 7 7 9 11 7 6 13 15 15 15 15 15 15 15 15 15 14 14 12 11 9 10 10 10 10 10 9 9 9 9 7 7 7 8 8 8 9 9 10 11 11
8 9 8 7 6 6 6 6 6 4 4 4 5 4 5 5 4 6 5 6 6 5 1 2 3 5 7 5 7 7 6 5 7 7 7 6 6 6 5 5 11 14 14 15 15 15 15 14 14 14 13 12 10 10 10 11 10 10 9 9 8 8 7 7 7 7 8 8 8 9 9 10 9 9
8 8 9 9 7 6 8 7 7 6 5 5 5 5 6 6 6 5 6 6 6 8 3 2 1 4 5 7 6 8 8 6 6 7 6 6 6 6 5 5 5 13 14 15 15 15 15 14 14 14 13 13 12 11 11 11 10 9 9 8 8 7 7 7 6 7 7 7 8 9 9 9 9 9
9 8 9 10 8 6 7 7 8 7 6 5 6 7 6 6 6 6 6 6 7 7 7 4 4 6 6 8 7 6 6 8 8 8 7 7 6 5 6 6 5 11 15 16 15 16 15 14 14 13 13 12 12 12 11 10 9 9 8 8 7 6 6 6 6 7 7 7 7 8 8 8 8 9
10 11 9 10 10 9 9 8 8 8 7 7 7 7 7 7 8 7 6 7 7 6 7 6 6 5 7 6 5 7 6 7 7 8 7 6 6 6 6 7 7 9 15 16 16 15 14 14 14 14 13 12 12 11 10 10 9 9 9 9 7 5 5 6 7 7 7 6 6 7 8 8 8 7
11 11 11 10 10 10 10 9 8 8 9 9 8 8 8 8 8 7 7 8 7 7 8 7 6 6 6 6 5 7 7 5 6 6 7 7 7 7 7 7 8 10 13 13 15 15 16 16 15 14 13 13 12 11 11 10 10 10 10 8 5 6 7 7 8 7 7 6 6 6 7 7 8 8
11 11 12 11 10 11 12 11 10 10 11 10 9 9 9 9 9 9 8 8 9 9 9 8 7 5 7 5 5 6 8 8 7 6 6 5 7 8 7 7 6 5 5 4 6 9 12 14 15 15 14 13 12 11 11 11 11 11 9 6 7 8 8 8 8 7 6 6 6 6 6 7 7 7
12 12 12 12 12 13 13 13 12 12 11 11 12 12 11 10 10 11 10 9 10 10 9 8 8 7 6 6 7 5 7 7 8 8 6 7 6 6 8 7 5 4 4 6 10 10 11 13 11 13 15 13 12 12 12 12 12 11 8 8 8 9 9 9 8 7 6 6 6 7 7 7 7 7
13 13 13 13 13 14 14 14 13 13 12 11 12 12 10 10 11 11 10 9 10 10 10 10 9 8 8 5 4 3 5 6 6 8 9 10 8 8 6 7 7 5 5 5 5 6 7 8 10 11 10 12 13 13 12 13 12 11 9 10 10 10 10 9 8 8 7 8 7 7 7 7 7 7
13 13 13 14 14 15 17 20 17 16 15 12 13 12 12 11 12 11 10 10 10 9 10 10 7 7 8 8 7 7 8 11 13 8 7 8 8 7 6 7 6 6 6 5 5 5 6 6 6 6 6 7 9 10 13 10 11 10 11 12 12 11 11 10 9 9 8 7 7 6 6 7 7 7
13 14 13 14 19 20 20 20 21 20 20 20 16 14 13 13 12 11 11 11 10 10 11 11 10 10 11 11 11 11 10 9 5 6 9 10 7 5 7 6 6 7 7 6 6 6 5 6 6 5 6 6 6 6 6 7 8 11 14 14 13 12 12 11 10 9 7 7 7 7 7 7 7 7
14 14 14 13 15 18 18 19 21 21 22 21 22 20 18 16 15 12 13 12 12 12 12 11 10 12 13 12 11 12 11 8 10 11 9 9 7 8 8 9 3 5 8 7 6 6 4 5 6 5 6 6 6 6 7 10 12 13 14 15 14 12 12 11 10 8 8 8 8 7 8 8 8 8
12 13 13 12 11 12 15 16 16 20 23 23 23 22 21 20 21 19 16 15 12 13 12 12 13 13 14 13 11 12 11 11 10 10 9 10 10 9 9 8 8 4 8 7 7 8 3 4 5 5 5 5 5 6 8 12 13 14 14 14 13 12 12 11 10 9 9 9 9 9 9 9 8 8
13 12 12 12 11 11 18 17 15 15 17 21 24 24 24 23 23 21 22 21 19 15 15 15 15 15 13 13 13 13 14 11 12 9 9 9 10 10 10 10 8 3 8 7 7 7 5 6 6 7 6 6 5 6 8 12 13 14 15 13 12 12 12 11 10 10 10 10 10 10 10 10 9 9
13 13 13 12 12 12 13 13 15 15 15 15 16 17 17 17 20 22 25 25 23 18 16 16 17 16 13 15 14 13 11 12 13 11 12 11 11 11 13 12 7 4 8 10 7 5 6 6 6 7 6 5 5 6 8 12 14 14 13 13 13 13 12 12 11 12 11 11 11 11 10 10 10 10
13 13 13 14 14 13 13 12 15 15 15 15 15 16 17 18 17 17 19 19 17 16 16 16 18 16 15 16 13 11 12 14 13 13 14 14 13 10 3 2 5 6 9 9 8 9 6 5 7 7 6 5 6 6 8 12 12 12 13 13 13 12 12 13 13 12 12 12 12 12 11 12 12 11
13 13 14 14 14 15 15 17 19 19 16 15 16 17 17 16 16 17 20 24 22 20 18 17 16 15 15 16 14 13 12 12 10 8 7 7 7 7 8 10 7 8 7 10 10 6 5 6 8 7 6 5 6 4 3 8 13 14 15 14 12 12 13 14 14 13 13 13 12 12 12 13 13 11
13 13 14 14 14 15 15 17 18 20 18 15 16 17 17 15 15 18 18 21 24 25 25 24 23 20 18 17 18 18 19 15 12 9 9 12 11 11 11 10 9 10 8 8 10 7 6 7 8 7 6 7 6 5 5 5 12 16 15 13 13 14 15 14 14 14 13 13 12 12 14 14 14 7
12 14 19 17 15 15 15 16 17 18 16 15 16 15 16 15 17 19 17 11 14 23 23 23 22 20 18 18 19 20 20 20 16 13 16 13 11 13 12 12 11 8 8 10 10 7 8 7 6 6 4 4 3 6 6 6 6 9 10 14 16 15 14 14 14 14 14 12 12 14 15 15 12 3
12 13 13 18 17 16 16 17 17 19 17 16 16 15 14 17 19 22 15 14 15 14 14 15 16 16 17 16 16 17 23 22 20 17 15 11 14 14 13 11 8 7 8 9 12 10 7 8 7 8 5 6 5 5 7 7 6 7 7 7 8 10 12 14 15 14 12 12 14 15 16 16 9 4
12 13 12 12 14 18 18 17 17 19 20 17 15 14 15 17 23 17 9 16 16 14 14 17 17 19 17 15 14 14 16 18 19 18 15 14 14 14 13 12 12 12 9 7 14 11 7 9 8 8 7 6 5 4 5 6 6 7 6 6 6 9 12 13 11 13 13 13 16 17 16 14 9 5
12 11 11 10 14 16 17 18 19 18 19 20 17 17 18 20 19 11 12 16 18 16 15 15 16 16 15 15 15 14 15 16 16 16 16 15 15 15 14 13 12 11 7 8 16 10 7 9 9 8 6 5 5 5 2 4 5 6 7 7 7 7 6 6 5 8 10 15 17 16 14 13 13 8
12 11 10 11 13 18 19 19 19 21 19 20 15 19 23 23 21 17 14 13 12 15 15 14 14 15 15 16 16 16 16 15 17 17 15 15 15 15 14 15 14 12 10 9 19 12 7 7 9 9 7 6 3 7 5 3 4 6 6 7 7 7 7 6 6 7 7 6 6 7 10 14 13 13
12 11 11 13 17 19 19 20 20 20 23 18 17 23 23 23 23 19 14 13 13 14 15 16 16 17 17 17 18 17 17 16 15 15 15 16 15 14 13 13 13 13 9 9 13 11 9 7 8 11 9 7 7 5 6 6 2 2 3 4 5 4 5 5 5 6 6 6 6 8 10 10 12 11
8 8 6 6 15 14 13 14 15 17 18 16 21 22 25 25 23 16 15 15 15 15 15 16 18 18 18 17 17 18 17 15 14 14 15 15 16 14 12 12 11 8 10 11 11 11 10 7 7 7 11 11 9 9 7 2 3 6 6 2 2 3 3 3 4 4 4 3 3 4 4 5 5 5
8 11 15 18 18 17 17 16 13 12 15 19 19 20 22 22 15 15 15 16 14 14 16 17 18 18 17 18 18 16 15 15 14 13 12 12 12 11 11 10 9 9 8 9 11 11 10 9 9 7 6 7 9 7 7 6 6 5 5 3 1 2 3 3 3 3 4 4 4 6 6 6 5 3
15 15 16 17 17 16 14 11 10 9 11 13 16 18 17 12 13 13 15 15 15 17 17 18 19 19 17 16 17 17 16 16 17 17 15 13 12 11 10 9 8 8 10 11 11 11 11 9 9 9 7 6 7 8 7 7 4 5 4 4 4 1 2 3 5 5 4 5 5 5 7 5 5 4
5 7 7 8 10 10 14 14 15 16 18 17 15 12 11 11 13 15 15 16 17 18 19 19 18 18 17 14 12 13 14 16 16 17 15 12 12 12 11 12 10 7 7 9 10 11 10 9 9 9 9 6 5 7 6 6 6 5 4 4 5 5 2 1 2 4 3 4 4 4 3 2 2 2
6 7 9 10 8 8 9 9 9 10 10 11 11 11 11 11 12 14 19 19 17 17 17 18 17 16 14 12 12 12 14 16 15 12 11 14 13 14 13 11 10 8 8 6 5 6 9 9 9 7 9 10 8 5 5 6 6 6 5 4 5 4 4 5 6 6 5 3 2 4 3 3 3 5
4 5 6 6 8 7 9 10 10 10 11 12 12 13 12 11 12 12 12 15 17 18 18 18 18 18 15 14 14 15 15 14 11 13 16 16 15 12 12 15 13 12 12 10 7 6 6 6 7 9 8 8 9 11 9 5 5 5 6 5 5 5 4 5 6 6 3 2 5 2 3 3 3 6
2 3 5 5 6 7 7 9 10 11 11 12 13 12 13 13 12 13 14 15 17 17 17 18 18 17 14 14 13 13 16 13 13 17 20 17 15 15 15 14 13 12 12 11 10 9 8 7 6 4 4 3 4 9 9 6 7 6 6 6 6 6 6 5 6 6 5 5 4 3 3 4 5 6
0 2 4 6 6 6 7 8 9 10 11 12 12 13 13 13 14 14 14 15 14 15 16 17 18 18 16 15 13 15 14 16 17 17 16 15 16 17 16 15 14 14 12 11 10 9 9 9 8 6 3 4 3 1 1 5 6 6 4 5 6 6 6 6 6 6 4 4 3 2 3 4 6 7
3 2 4 6 7 8 8 9 9 10 11 11 12 12 13 14 13 14 15 13 13 15 16 17 18 17 17 16 16 17 19 21 21 20 18 17 17 15 14 13 14 14 13 13 12 10 10 10 10 10 9 7 6 6 5 7 9 6 7 5 5 6 6 5 4 4 6 4 4 2 2 5 7 7
6 5 5 6 7 7 8 9 10 11 11 11 12 12 13 14 15 14 16 16 16 15 16 17 18 18 18 17 16 15 14 14 17 18 19 18 17 17 17 14 15 14 13 11 11 10 10 10 9 9 9 8 8 9 6 1 11 12 8 8 5 6 6 4 4 5 5 5 3 4 5 5 6 7
5 5 6 7 7 7 8 8 9 10 11 11 11 12 12 14 14 15 15 13 15 15 16 16 17 18 17 14 13 14 17 22 21 21 23 21 20 18 17 17 16 14 13 11 10 11 10 9 9 8 9 10 9 7 5 2 1 5 13 10 8 6 6 5 5 6 5 3 6 6 3 5 7 8
2 5 6 7 8 8 8 9 9 10 11 11 11 12 13 14 14 14 13 13 14 15 16 17 18 16 15 13 12 16 18 15 16 20 20 17 19 19 17 16 15 14 13 11 9 9 8 8 8 8 9 9 9 8 7 5 4 2 6 16 9 6 5 7 6 4 4 3 6 4 5 5 4 7
4 4 5 6 6 7 7 8 8 8 9 9 10 11 12 14 13 13 13 13 14 15 16 17 18 18 17 18 12 6 10 21 24 19 20 19 18 18 16 14 15 14 13 11 11 9 9 9 9 9 8 7 6 6 7 5 2 1 3 7 10 9 7 6 6 6 3 6 4 2 6 4 5 3
5 6 6 6 6 6 7 7 7 8 8 9 10 11 11 12 11 9 9 10 11 13 15 17 17 16 15 12 12 13 11 2 3 11 16 19 19 16 16 16 13 13 14 11 10 10 10 10 9 11 8 4 5 5 6 4 3 1 3 4 9 13 14 11 8 6 7 4 5 7 6 6 5 3
4 5 5 5 6 7 7 7 8 8 8 8 8 9 10 10 9 13 10 9 9 11 12 13 10 2 4 7 4 6 2 12 16 11 12 14 16 16 17 14 13 12 12 10 8 8 7 4 8 9 6 7 6 6 5 6 4 2 3 3 2 9 15 17 15 12 9 6 5 3 3 3 0 2
4 4 5 6 6 6 6 6 7 7 7 7 8 9 9 9 9 10 10 10 10 13 18 22 13 15 20 19 13 12 19 16 10 15 19 17 15 14 12 11 11 11 10 8 7 6 8 7 6 8 7 6 5 6 6 6 5 4 2 1 3 3 3 9 14 16 15 14 13 11 8 6 2 2
4 4 4 5 5 6 6 6 6 6 6 7 7 8 8 8 9 10 10 8 10 11 12 15 16 17 16 16 18 19 17 16 16 18 15 13 13 12 10 9 10 9 7 7 7 6 6 6 6 7 7 6 5 6 6 5 5 5 5 3 1 1 4 4 2 4 6 9 13 13 13 12 11 11
3 4 4 5 5 5 5 5 5 5 5 6 7 8 8 8 9 9 10 10 10 10 11 11 13 16 15 14 16 16 15 17 16 12 11 9 9 8 8 8 8 8 7 7 8 6 6 6 5 5 5 6 5 6 6 6 5 3 3 3 4 4 5 2 3 4 4 4 10 16 16 14 14 12
Wind_Direction
193 201 211 208 216 226 225 221 206 209 189 180 182 172 172 162 154 184 211 246 216 273 203 202 227 185 189 191 190 178 182 188 182 182 187 190 198 209 213 216 218 220 219 221 224 225 228 231 235 239 243 247 249 251 250 252 258 262 266 268 271 273 273 273 271 269 268 267 268 267 267 269 272 276
191 199 205 210 221 229 223 237 218 201 190 187 170 172 183 166 177 177 177 247 223 241 254 200 221 214 193 180 181 188 193 187 178 185 192 194 200 211 212 214 218 219 218 221 224 226 228 231 234 237 241 244 248 251 253 256 258 261 262 264 266 269 271 272 270 268 266 265 266 265 268 271 272 272
189 198 206 206 214 227 226 229 237 229 187 188 186 152 151 165 166 172 156 199 278 193 228 245 220 173 190 178 176 187 193 193 181 186 197 204 206 208 213 215 218 217 216 220 223 226 229 232 233 236 238 240 241 244 246 250 253 256 259 261 265 266 269 271 273 275 276 275 273 268 269 272 275 276
191 195 203 207 207 211 222 226 228 226 217 182 184 169 160 165 161 155 164 189 242 257 217 240 214 178 173 179 175 185 193 194 186 189 196 208 217 213 214 218 216 213 213 217 222 225 229 231 234 236 238 239 240 236 240 243 246 250 254 259 263 267 272 279 280 281 281 280 278 278 278 279 280 281
189 196 201 206 208 198 205 218 226 227 215 197 189 183 165 178 177 161 171 196 237 284 240 198 193 192 162 189 191 193 202 194 200 198 198 192 190 197 200 204 209 208 211 218 222 225 227 230 233 236 237 239 236 233 234 238 239 242 247 252 256 261 267 273 277 280 284 284 283 281 280 281 282 284
198 193 199 207 204 197 203 205 213 217 216 198 195 200 187 192 199 189 171 200 199 235 282 273 254 182 191 192 206 192 198 207 194 203 205 196 187 194 196 196 208 207 212 218 221 222 224 226 230 234 237 237 238 238 239 240 238 239 242 247 251 255 258 263 269 274 275 279 282 284 286 285 286 288
199 195 200 206 202 193 200 205 208 203 208 201 199 204 196 199 203 200 192 176 208 217 241 221 217 205 198 201 213 209 202 197 188 194 204 200 201 200 194 202 212 209 215 219 220 219 219 222 226 229 232 235 236 237 238 237 236 237 242 246 249 253 258 265 266 270 274 282 286 289 291 292 290 289
198 202 199 206 200 197 202 205 204 205 202 199 202 203 205 200 205 202 199 199 194 206 219 238 217 215 185 224 217 204 191 188 194 198 203 205 202 205 206 208 216 217 215 221 220 218 217 219 223 225 229 233 235 234 232 231 230 233 238 240 241 248 255 253 254 258 264 265 271 278 284 286 286 284
198 201 205 204 197 197 203 207 206 203 205 206 197 205 203 203 204 204 200 205 197 199 213 231 228 220 221 208 197 192 190 204 201 202 200 202 207 214 218 213 219 227 224 216 213 210 212 217 221 223 226 230 233 230 229 228 227 231 235 235 223 225 230 235 238 242 247 252 256 267 270 274 276 275
202 202 206 203 196 197 201 208 208 204 207 205 206 205 206 205 202 206 207 201 204 207 217 208 231 227 215 227 216 194 190 188 201 211 216 212 208 207 218 218 211 202 203 207 212 214 217 220 222 223 226 228 227 227 227 227 226 229 231 216 212 218 226 231 232 228 231 240 251 258 265 266 271 273
208 207 206 205 201 200 204 206 206 205 206 207 211 209 206 204 202 207 207 202 205 210 214 220 215 220 228 202 218 222 193 190 188 198 218 232 223 208 201 221 236 215 198 212 199 197 198 207 212 222 226 226 223 224 226 228 226 226 216 207 213 219 226 229 225 221 221 229 238 243 248 258 265 270
211 209 209 208 206 205 205 206 207 201 205 206 212 212 207 204 203 207 206 202 204 209 214 214 216 217 217 236 228 193 179 208 235 209 195 213 217 222 220 211 208 226 195 205 217 223 217 223 222 229 229 226 226 225 228 230 225 216 200 205 211 217 222 222 219 216 217 224 230 238 248 259 270 272
214 212 212 211 211 210 209 206 206 205 201 200 208 213 209 208 205 207 205 206 203 212 212 221 217 215 220 219 201 209 200 204 215 204 187 213 211 208 218 239 221 201 197 213 211 216 196 209 216 207 220 230 225 230 224 227 221 202 200 205 210 212 214 214 212 212 217 225 233 243 252 262 266 270
215 216 215 216 212 210 209 207 208 208 205 206 207 208 206 208 206 207 206 207 209 208 212 217 208 215 222 215 210 213 217 214 202 181 197 212 208 188 218 237 224 202 192 195 215 229 201 197 221 203 214 225 206 215 200 214 205 201 203 207 208 208 209 209 207 210 216 225 238 245 251 253 259 262
217 218 218 221 215 212 211 211 209 209 209 209 213 214 210 207 203 204 207 211 208 209 215 215 211 218 222 219 211 215 213 208 202 206 196 206 184 194 194 221 255 204 182 195 201 231 223 179 196 207 209 207 201 206 209 206 203 201 204 207 204 204 207 205 205 205 211 227 237 245 247 251 254 257
218 219 220 220 220 214 213 214 214 212 211 211 213 214 214 214 213 208 201 205 207 211 215 215 216 215 220 217 210 214 207 212 210 209 199 200 197 202 207 214 215 217 173 181 191 229 224 184 199 216 221 207 199 209 208 204 200 205 205 205 198 199 204 204 202 201 212 225 234 237 241 244 247 251
217 218 221 222 220 222 212 213 214 212 216 216 215 214 216 217 214 215 217 212 207 202 210 215 219 216 215 214 218 207 207 203 210 203 206 205 204 202 207 216 209 204 173 158 188 220 222 176 201 213 226 213 217 230 210 202 200 203 204 195 193 198 200 201 200 206 216 226 233 237 239 242 246 247
220 218 220 222 223 222 217 213 214 214 213 215 219 221 220 221 220 218 219 220 218 211 211 212 219 220 207 217 216 206 199 197 208 200 208 203 205 201 209 212 194 174 166 175 174 214 229 190 182 212 231 212 227 229 219 207 208 200 188 188 194 196 195 199 206 213 220 227 234 239 241 242 244 245
224 223 222 223 225 223 223 216 211 213 213 213 216 218 222 222 220 217 222 223 219 218 220 219 222 221 212 219 214 202 201 205 207 201 203 199 203 202 184 150 188 171 183 170 160 206 208 180 178 210 215 216 223 221 223 213 201 182 185 193 195 191 194 204 212 217 221 228 235 241 245 247 247 246
226 226 225 226 228 227 225 222 208 210 211 212 217 219 222 223 224 225 222 218 216 217 219 222 223 221 216 212 211 203 201 207 207 202 201 191 183 167 183 204 191 191 196 181 176 192 198 187 189 200 205 197 225 225 191 195 183 185 192 196 186 189 200 211 217 220 223 229 237 244 250 252 255 253
228 228 226 226 231 230 232 226 212 212 207 217 219 221 222 222 224 232 230 223 221 223 224 225 227 224 218 211 210 204 201 201 194 184 187 200 183 186 196 203 189 206 183 200 187 174 193 198 188 190 181 178 205 204 192 179 194 194 193 183 186 196 207 215 221 223 226 232 239 247 253 257 258 267
234 233 228 227 229 233 236 228 217 213 205 221 225 224 225 225 229 235 230 223 223 228 229 230 229 227 219 210 206 205 202 200 189 192 205 197 181 197 196 196 200 200 193 197 178 167 205 183 189 185 177 154 185 180 191 184 181 188 184 189 193 202 210 218 227 229 231 237 244 250 254 259 265 266
238 241 236 231 231 234 237 230 218 211 203 221 227 226 225 229 233 235 220 221 226 220 221 233 235 238 229 216 208 209 204 201 199 204 207 187 190 196 197 192 179 201 222 201 173 184 199 176 203 175 152 184 217 187 173 168 167 172 178 192 207 215 219 227 231 235 237 240 245 249 253 258 262 252
238 242 245 240 235 237 243 238 225 216 205 217 227 226 228 232 237 237 217 226 225 226 218 224 224 227 224 222 217 212 207 208 205 206 205 196 193 194 193 191 190 199 202 185 177 190 190 191 194 193 184 158 187 189 145 160 162 168 168 171 185 223 226 236 249 250 246 245 248 250 253 259 251 237
241 242 238 243 239 230 232 235 236 231 218 217 225 227 231 232 242 237 223 229 220 225 225 222 223 225 223 221 218 215 212 208 208 208 204 198 195 191 191 193 197 208 201 183 178 179 182 190 195 186 198 180 157 132 181 154 180 163 178 177 194 223 204 223 226 246 243 244 248 253 260 257 248 212
240 241 240 239 236 229 227 226 228 232 227 222 225 235 236 240 241 236 233 230 221 222 226 224 221 221 219 219 217 216 213 211 207 207 203 200 196 195 193 190 190 198 202 187 176 185 167 185 188 181 184 177 170 144 140 168 177 184 176 185 195 206 186 205 206 231 237 241 247 236 238 243 247 221
239 235 238 238 233 229 227 225 227 229 231 225 226 234 240 242 241 236 237 234 229 226 225 225 224 220 218 216 216 214 214 211 207 206 202 200 197 196 197 192 192 195 182 168 187 185 179 185 186 179 180 174 151 153 160 156 210 189 142 184 184 200 194 186 205 228 240 233 233 239 238 245 242 233
261 268 271 332 347 335 316 294 272 255 242 234 230 231 238 240 240 238 239 236 233 232 230 228 229 226 221 220 218 215 213 209 201 206 203 199 198 193 188 186 183 169 158 173 181 182 179 166 178 187 166 165 159 162 182 204 140 153 169 249 173 208 211 188 213 223 238 241 282 286 287 272 253 243
299 309 309 310 309 310 305 295 279 274 269 264 265 257 248 243 240 239 240 240 247 238 232 232 233 232 225 219 219 214 206 204 200 201 204 199 195 187 179 176 167 161 159 170 173 178 175 163 164 163 163 166 160 166 149 171 167 185 175 157 246 255 227 196 195 238 268 282 269 267 251 228 242 204
299 295 295 296 297 296 290 286 277 271 266 258 252 250 254 258 255 254 247 246 240 240 239 237 235 234 231 224 218 207 199 198 200 195 194 188 187 174 169 163 176 174 170 170 169 168 164 160 157 159 156 169 158 153 163 137 165 175 164 169 198 313 252 231 255 248 238 255 261 262 252 216 214 184
288 306 312 312 301 285 283 279 272 274 274 273 264 257 249 249 245 243 240 243 243 237 238 238 237 236 234 229 215 207 200 203 204 197 187 178 181 176 178 178 172 177 177 171 170 164 156 153 156 151 153 159 152 160 155 148 155 160 187 179 156 184 241 197 233 239 228 232 249 249 258 240 278 251
330 321 320 319 315 307 304 298 303 289 281 270 272 266 260 251 247 249 254 257 256 254 247 246 246 245 237 228 217 211 208 209 202 176 170 178 188 189 171 170 178 170 163 172 165 160 152 153 154 159 157 162 165 156 129 147 167 176 186 191 192 222 217 229 251 269 252 255 248 239 258 258 270 283
328 331 325 329 315 312 302 302 295 290 284 282 275 269 261 252 248 241 234 241 245 247 249 250 247 242 230 228 214 209 208 201 186 176 178 182 186 183 174 182 176 166 168 173 165 158 146 146 151 156 165 171 160 149 151 158 200 176 183 195 185 214 232 229 224 242 264 184 221 243 285 278 254 251
343 323 318 307 306 306 310 300 297 296 297 296 293 287 283 276 267 257 251 247 249 248 247 248 247 246 239 234 222 208 204 188 175 182 185 185 177 173 179 178 170 172 175 165 164 161 155 150 144 142 153 149 150 152 156 168 187 189 193 181 182 211 228 227 234 233 219 200 183 222 287 295 284 272
141 331 316 310 305 300 296 293 292 296 297 296 296 294 293 286 280 274 265 260 257 255 252 251 251 250 240 231 211 201 193 188 186 186 184 174 173 176 180 179 177 169 164 158 163 162 155 153 145 139 119 119 104 360 222 168 162 188 167 192 187 201 227 220 225 229 204 201 136 179 254 275 288 275
2 337 321 313 310 307 305 298 294 292 291 291 290 291 291 286 284 281 280 277 265 257 253 252 250 248 242 229 219 209 200 187 182 176 175 174 177 176 173 171 161 165 166 163 162 159 157 155 159 160 162 162 160 183 243 220 185 163 174 206 197 200 218 224 224 206 185 185 182 161 220 259 264 274
347 337 322 306 302 301 300 302 303 300 294 291 288 285 282 283 281 276 274 280 279 273 260 254 250 245 241 229 215 204 205 200 184 178 173 171 169 166 165 162 164 164 162 164 157 154 147 158 169 164 159 164 174 195 213 136 213 205 165 200 204 188 209 214 202 198 209 187 197 181 215 225 249 252
340 326 314 310 306 306 301 304 307 304 299 291 287 284 280 276 277 277 279 279 276 276 272 265 260 254 249 236 224 213 201 189 184 179 177 170 162 165 163 156 155 160 160 154 150 152 152 156 175 176 171 177 178 189 205 260 227 242 206 190 194 196 178 180 180 191 228 209 200 228 197 232 243 243
280 312 315 317 321 319 321 319 315 307 304 301 298 296 294 292 289 288 284 275 271 269 268 267 263 257 253 248 232 211 199 200 196 177 165 163 160 156 150 151 147 145 142 137 135 137 141 165 182 185 185 179 182 191 174 156 207 278 205 190 178 164 178 176 199 208 205 233 249 247 243 238 275 276
343 330 320 322 320 324 322 319 315 315 315 315 312 312 310 309 307 302 296 285 276 268 266 261 261 260 255 247 221 196 227 194 182 179 165 150 148 142 143 147 142 136 132 129 125 138 154 175 196 187 192 190 178 162 158 162 143 17 95 196 187 170 190 167 202 203 225 228 221 222 262 305 284 310
349 347 342 330 326 331 332 325 324 326 328 329 328 324 324 322 316 312 309 301 289 282 273 265 253 250 253 246 224 201 182 221 243 155 147 142 134 127 128 125 119 124 120 127 145 158 173 192 187 185 172 131 121 95 87 99 123 160 165 215 217 214 218 207 204 188 219 203 174 202 229 243 257 304
340 339 338 339 335 335 334 331 333 331 328 328 326 329 328 334 331 324 322 335 347 349 333 297 255 307 325 259 188 37 359 146 141 124 106 99 102 106 110 108 114 110 122 140 156 167 169 183 168 159 137 134 133 140 170 174 185 216 213 237 244 212 222 231 228 217 209 194 174 201 232 297 41 263
360 352 348 339 335 333 337 332 330 330 328 328 334 336 338 339 338 338 337 344 356 13 33 29 27 59 66 52 28 73 80 54 62 98 98 91 91 97 102 112 116 125 134 143 137 134 164 174 160 150 149 144 162 156 175 186 183 174 176 165 262 293 264 224 225 229 229 219 205 201 190 185 157 263
360 358 346 336 337 335 327 331 328 331 338 345 344 349 351 347 346 339 335 342 8 16 25 64 62 57 55 67 75 61 52 71 72 64 62 77 94 105 119 124 121 116 117 125 133 151 156 164 169 153 150 164 154 156 176 158 176 185 187 201 250 270 265 294 267 237 243 252 248 243 238 222 211 219
346 343 342 338 335 328 328 322 332 335 351 357 4 10 2 1 356 350 350 353 7 22 22 25 62 78 79 71 72 75 78 77 76 79 88 91 95 97 103 111 114 119 126 138 138 151 156 157 153 143 146 160 158 163 168 161 175 169 197 210 235 237 236 220 232 249 244 265 237 220 225 227 230 237